• In Belgium
  • List of Countries
  • For 7 days
  • Water Temperature
  • Satellite Maps
  • Weather Map
  • Weather Widgets
  • user-avatar
    Login

    Hourly Weather Banning

    Today, 25 June, Monday

    Time Temperature Precipitation Wind Pressure Humidity
    00:00 +21°C° 0 mm 2 mps 697 mmHg 55%
    01:00 +20°C° 0 mm 2 mps 697 mmHg 55%
    02:00 +20°C° 0 mm 2 mps 697 mmHg 55%
    03:00 +20°C° 0 mm 1 mps 697 mmHg 55%
    04:00 +20°C° 0 mm 1 mps 697 mmHg 55%
    05:00 +22°C° 0 mm 1 mps 698 mmHg 47%
    06:00 +24°C° 0 mm 1 mps 698 mmHg 40%
    07:00 +27°C° 0 mm 1 mps 699 mmHg 33%
    08:00 +29°C° 0 mm 1 mps 699 mmHg 28%
    09:00 +30°C° 0 mm 2 mps 699 mmHg 24%
    10:00 +32°C° 0 mm 2 mps 700 mmHg 20%
    11:00 +34°C° 0 mm 2 mps 700 mmHg 19%
    12:00 +35°C° 0 mm 3 mps 699 mmHg 18%
    13:00 +36°C° 0 mm 3 mps 699 mmHg 17%
    14:00 +36°C° 0 mm 3 mps 699 mmHg 18%
    15:00 +35°C° 0 mm 4 mps 698 mmHg 19%
    16:00 +35°C° 0 mm 4 mps 698 mmHg 20%
    17:00 +33°C° 0 mm 3 mps 698 mmHg 26%
    18:00 +30°C° 0 mm 3 mps 698 mmHg 31%
    19:00 +27°C° 0 mm 3 mps 697 mmHg 36%
    20:00 +26°C° 0 mm 2 mps 697 mmHg 40%
    21:00 +25°C° 0 mm 2 mps 697 mmHg 44%
    22:00 +24°C° 0 mm 2 mps 698 mmHg 47%
    23:00 +23°C° 0 mm 2 mps 697 mmHg 47%

    Tomorrow, 26 June, Tuesday

    Time Temperature Precipitation Wind Pressure Humidity
    00:00 +23°C° 0 mm 2 mps 697 mmHg 47%
    01:00 +23°C° 0 mm 2 mps 697 mmHg 47%
    02:00 +21°C° 0 mm 2 mps 697 mmHg 47%
    03:00 +21°C° 0 mm 2 mps 697 mmHg 47%
    04:00 +20°C° 0 mm 2 mps 697 mmHg 48%
    05:00 +24°C° 0 mm 1 mps 698 mmHg 41%
    06:00 +26°C° 0 mm 1 mps 698 mmHg 34%
    07:00 +28°C° 0 mm 1 mps 699 mmHg 28%
    08:00 +30°C° 0 mm 1 mps 699 mmHg 23%
    09:00 +32°C° 0 mm 2 mps 699 mmHg 19%
    10:00 +35°C° 0 mm 2 mps 700 mmHg 15%
    11:00 +36°C° 0 mm 3 mps 700 mmHg 13%
    12:00 +37°C° 0 mm 3 mps 699 mmHg 11%
    13:00 +38°C° 0 mm 4 mps 699 mmHg 9%
    14:00 +37°C° 0 mm 4 mps 699 mmHg 10%
    15:00 +37°C° 0 mm 4 mps 698 mmHg 11%
    16:00 +36°C° 0 mm 4 mps 698 mmHg 12%
    17:00 +34°C° 0 mm 4 mps 698 mmHg 17%
    18:00 +30°C° 0 mm 3 mps 697 mmHg 22%
    19:00 +28°C° 0 mm 3 mps 697 mmHg 27%
    20:00 +26°C° 0 mm 3 mps 697 mmHg 31%
    21:00 +25°C° 0 mm 3 mps 697 mmHg 35%
    22:00 +23°C° 0 mm 2 mps 698 mmHg 39%
    23:00 +23°C° 0 mm 2 mps 697 mmHg 35%

    Day after tomorrow, 27 June, Wednesday

    Time Temperature Precipitation Wind Pressure Humidity
    00:00 +23°C° 0 mm 2 mps 697 mmHg 32%
    01:00 +23°C° 0 mm 2 mps 697 mmHg 29%
    02:00 +21°C° 0 mm 2 mps 697 mmHg 30%
    03:00 +21°C° 0 mm 2 mps 697 mmHg 31%
    04:00 +21°C° 0 mm 2 mps 696 mmHg 32%
    05:00 +24°C° 0 mm 2 mps 697 mmHg 30%
    06:00 +26°C° 0 mm 2 mps 698 mmHg 28%
    07:00 +29°C° 0 mm 2 mps 698 mmHg 25%
    08:00 +30°C° 0 mm 2 mps 699 mmHg 22%
    09:00 +32°C° 0 mm 2 mps 699 mmHg 20%
    10:00 +35°C° 0 mm 3 mps 699 mmHg 17%
    11:00 +35°C° 0 mm 3 mps 699 mmHg 15%
    12:00 +36°C° 0 mm 4 mps 699 mmHg 14%
    13:00 +37°C° 0 mm 4 mps 699 mmHg 12%
    14:00 +37°C° 0 mm 5 mps 698 mmHg 13%
    15:00 +36°C° 0 mm 5 mps 698 mmHg 14%
    16:00 +35°C° 0 mm 5 mps 697 mmHg 15%
    17:00 +33°C° 0 mm 4 mps 697 mmHg 20%
    18:00 +30°C° 0 mm 4 mps 697 mmHg 24%
    19:00 +27°C° 0 mm 3 mps 697 mmHg 29%
    20:00 +26°C° 0 mm 3 mps 697 mmHg 30%
    21:00 +25°C° 0 mm 3 mps 697 mmHg 32%
    22:00 +24°C° 0 mm 3 mps 697 mmHg 34%
    23:00 +24°C° 0 mm 3 mps 697 mmHg 34%

    28 June, Thursday

    Time Temperature Precipitation Wind Pressure Humidity
    00:00 +23°C° 0 mm 2 mps 697 mmHg 35%
    01:00 +23°C° 0 mm 2 mps 696 mmHg 35%
    02:00 +21°C° 0 mm 2 mps 696 mmHg 35%
    03:00 +21°C° 0 mm 2 mps 696 mmHg 34%
    04:00 +20°C° 0 mm 2 mps 696 mmHg 34%
    05:00 +23°C° 0 mm 2 mps 696 mmHg 28%
    06:00 +25°C° 0 mm 2 mps 697 mmHg 22%
    07:00 +28°C° 0 mm 2 mps 698 mmHg 16%
    08:00 +29°C° 0 mm 3 mps 698 mmHg 14%
    09:00 +31°C° 0 mm 3 mps 698 mmHg 12%
    10:00 +33°C° 0 mm 4 mps 698 mmHg 10%
    11:00 +34°C° 0 mm 4 mps 698 mmHg 11%
    12:00 +34°C° 0 mm 5 mps 697 mmHg 11%
    13:00 +35°C° 0 mm 5 mps 697 mmHg 11%
    14:00 +34°C° 0 mm 5 mps 697 mmHg 13%
    15:00 +34°C° 0 mm 5 mps 696 mmHg 14%
    16:00 +33°C° 0 mm 5 mps 696 mmHg 15%
    17:00 +30°C° 0 mm 5 mps 695 mmHg 20%
    18:00 +28°C° 0 mm 4 mps 695 mmHg 24%
    19:00 +25°C° 0 mm 4 mps 695 mmHg 29%
    20:00 +24°C° 0 mm 3 mps 695 mmHg 32%
    21:00 +22°C° 0 mm 3 mps 695 mmHg 35%
    22:00 +20°C° 0 mm 3 mps 695 mmHg 38%
    23:00 +20°C° 0 mm 3 mps 695 mmHg 38%

    29 June, Friday

    Time Temperature Precipitation Wind Pressure Humidity
    00:00 +20°C° 0 mm 3 mps 695 mmHg 38%
    01:00 +19°C° 0 mm 3 mps 694 mmHg 38%
    02:00 +19°C° 0 mm 3 mps 694 mmHg 39%
    03:00 +19°C° 0 mm 3 mps 694 mmHg 40%
    04:00 +18°C° 0 mm 2 mps 694 mmHg 40%
    05:00 +20°C° 0 mm 2 mps 695 mmHg 37%
    06:00 +23°C° 0 mm 2 mps 695 mmHg 34%
    07:00 +24°C° 0 mm 3 mps 696 mmHg 32%
    08:00 +26°C° 0 mm 3 mps 696 mmHg 28%
    09:00 +27°C° 0 mm 3 mps 696 mmHg 25%
    10:00 +29°C° 0 mm 3 mps 696 mmHg 22%
    11:00 +30°C° 0 mm 4 mps 696 mmHg 22%
    12:00 +30°C° 0 mm 4 mps 696 mmHg 21%
    13:00 +32°C° 0 mm 4 mps 695 mmHg 21%
    14:00 +32°C° 0 mm 4 mps 695 mmHg 22%
    15:00 +30°C° 0 mm 5 mps 694 mmHg 24%
    16:00 +30°C° 0 mm 5 mps 694 mmHg 26%
    17:00 +28°C° 0 mm 4 mps 694 mmHg 32%
    18:00 +26°C° 0 mm 4 mps 694 mmHg 39%
    19:00 +23°C° 0 mm 4 mps 693 mmHg 45%
    20:00 +22°C° 0 mm 3 mps 693 mmHg 50%
    21:00 +20°C° 0 mm 3 mps 693 mmHg 56%
    22:00 +19°C° 0 mm 3 mps 694 mmHg 61%
    23:00 +19°C° 0 mm 3 mps 693 mmHg 61%

    30 June, Saturday

    Time Temperature Precipitation Wind Pressure Humidity
    00:00 +18°C° 0 mm 3 mps 693 mmHg 62%
    01:00 +18°C° 0 mm 3 mps 693 mmHg 63%
    02:00 +18°C° 0 mm 3 mps 693 mmHg 63%
    03:00 +17°C° 0 mm 2 mps 693 mmHg 64%
    04:00 +17°C° 0 mm 2 mps 693 mmHg 65%
    05:00 +19°C° 0 mm 2 mps 694 mmHg 59%
    06:00 +20°C° 0 mm 2 mps 694 mmHg 52%
    07:00 +23°C° 0 mm 2 mps 695 mmHg 46%
    08:00 +25°C° 0 mm 2 mps 695 mmHg 42%
    09:00 +26°C° 0 mm 2 mps 695 mmHg 37%
    10:00 +28°C° 0 mm 2 mps 695 mmHg 33%
    11:00 +29°C° 0 mm 3 mps 695 mmHg 31%
    12:00 +30°C° 0 mm 3 mps 695 mmHg 30%
    13:00 +31°C° 0 mm 3 mps 695 mmHg 29%
    14:00 +30°C° 0 mm 3 mps 695 mmHg 31%
    15:00 +30°C° 0 mm 4 mps 694 mmHg 33%
    16:00 +30°C° 0 mm 4 mps 694 mmHg 35%
    17:00 +28°C° 0 mm 4 mps 694 mmHg 40%
    18:00 +26°C° 0 mm 3 mps 694 mmHg 46%
    19:00 +25°C° 0 mm 3 mps 694 mmHg 52%
    20:00 +22°C° 0 mm 3 mps 694 mmHg 55%
    21:00 +21°C° 0 mm 3 mps 694 mmHg 59%
    22:00 +20°C° 0 mm 2 mps 695 mmHg 62%
    23:00 +20°C° 0 mm 2 mps 695 mmHg 62%
    Show more